Hourly Data Report for May 18, 2022

WINNIPEG THE FORKS
MANITOBA
Current Station Operator: ECCC - MSC

49°53'18.008" N
97°07'46.007" W
230.00 m
5023262
71579
XWN

Download Data

Hourly Data (May 2022)
Hourly Data Report for May 18, 2022
TIME
LST
Temp Definition
°C
Dew Point Definition
°C
Rel Hum Definition
%
Precip. Amount Definition
mm

Wind Dir Definition
10's deg

Wind Spd Definition
km/h
Visibility Definition
km
Stn Press Definition
kPa
Hmdx Definition


Wind Chill Definition


Weather Definition


00:00 9.6 7.7 88 2.0 9 6   98.39     LegendNANA
01:00 9.4 7.3 87 2.5 8 7   98.25     LegendNANA
02:00 9.1 7.7 91 7.2 8 6   98.15     LegendNANA
03:00 9.2 7.4 88 0.1 9 7   98.04     LegendNANA
04:00 9.2 7.1 87 0.0 10 8   97.96     LegendNANA
05:00 9.2 7.3 88 0.0 10 6   97.94     LegendNANA
06:00 9.1 7.6 90 1.1 10 12   97.64     LegendNANA
07:00 10.0 8.4 90 0.1 30 6   97.82     LegendNANA
08:00 9.7 8.5 92 0.9 7 9   97.61     LegendNANA
09:00 9.7 8.6 93 1.1 5 6   97.58     LegendNANA
10:00 9.7 8.8 94 2.8 3 6   97.51     LegendNANA
11:00 10.1 9.1 94 0.5 3 7   97.51     LegendNANA
12:00 10.5 9.5 93 0.3 3 4   97.49     LegendNANA
13:00 10.9 9.8 93 0.8 34 7   97.54     LegendNANA
14:00 10.9 9.4 90 0.1 35 10   97.59     LegendNANA
15:00 10.8 8.9 88 0.0 35 11   97.65     LegendNANA
16:00 10.9 9.0 88 0.0 36 9   97.67     LegendNANA
17:00 10.7 9.1 90 0.0 34 12   97.75     LegendNANA
18:00 11.0 9.0 88 0.0 35 8   97.80     LegendNANA
19:00 11.6 8.2 80 0.0 35 6   97.80     LegendNANA
20:00 11.8 8.0 78 0.0 29 3   97.84     LegendNANA
21:00 10.9 8.1 82 0.0 29 4   97.86     LegendNANA
22:00 10.3 7.4 82 0.0 29 5   97.86     LegendNANA
23:00 10.3 5.4 72 0.0 27 4   97.87     LegendNANA

Notes on Data Quality.

Legend

  • E = Estimated
  • M = Missing
  • NA = Not Available*
  • [empty] = Indicates an unobserved value
Date modified: